Find Starlink 5403

NORAD ID: 54862 Int'l Des: 2022-177 Owner: SPXS Country: US Constellation: starlink operational
LEOCIRCULAR

Live Position

Loading 3D Globe...

About Starlink 5403

Description loading...

Upcoming Passes

Passes for default location (London). Set your location on the main map for personalized predictions.

Altitude History

Loading altitude history...

Two-Line Element Set

1 54862U 22177AU 26110.41678792 -.00000160 00000-0 37158-5 0 9995
2 54862 43.0019 245.8195 0000719 274.0035 86.0734 15.26740586183471
Epoch: Apr 20, 2026 • Age: 6 hours

Current Status

Altitude 492.7 km
Velocity 7.62 km/s
Sub-Earth Point -28.58°S, 118.77°E
Launch Date Dec 28, 2022
Age 3.3 years
Type internet

Technical Details

Classification Payload
Mass 305.00 kg
Dry Mass 290.00 kg
Total Mass 305.00 kg
Length 0.20 m
Diameter 2.80 m
Span 9.00 m
Shape Box + pan
Manufacturer SPXS
Bus Type Starlink
Phase Status In Orbit
Owner/State SPXS/US

Most Searched